Year,Month,Day,Hour,Minute,Value (Times are PST for temperature in C)
2014,07,12,07,26,18.10
2014,07,12,07,27,18.20
2014,07,12,07,28,18.20
2014,07,12,07,29,18.30
2014,07,12,07,30,18.30
2014,07,12,07,31,18.30
2014,07,12,07,32,18.30
2014,07,12,07,33,18.30
2014,07,12,07,34,18.30
2014,07,12,07,35,18.30
2014,07,12,07,36,18.30
2014,07,12,07,37,18.30
2014,07,12,07,38,18.30
2014,07,12,07,39,18.30
2014,07,12,07,40,18.30
2014,07,12,07,41,18.40
2014,07,12,07,42,18.40
2014,07,12,07,43,18.40
2014,07,12,07,44,18.40
2014,07,12,07,45,18.50
2014,07,12,07,46,18.60
2014,07,12,07,47,18.70
2014,07,12,07,48,18.80
2014,07,12,07,49,18.90
2014,07,12,07,50,18.90
2014,07,12,07,51,19.10
2014,07,12,07,52,19.10
2014,07,12,07,53,19.20
2014,07,12,07,54,19.30
2014,07,12,07,55,19.40
2014,07,12,07,56,19.40
2014,07,12,07,57,19.40
2014,07,12,07,58,19.40
2014,07,12,07,59,19.40
2014,07,12,08,00,19.40
2014,07,12,08,01,19.40
2014,07,12,08,02,19.40
2014,07,12,08,03,19.50
2014,07,12,08,04,19.60
2014,07,12,08,05,19.60
2014,07,12,08,06,19.60
2014,07,12,08,07,19.60
2014,07,12,08,08,19.70
2014,07,12,08,09,19.70
2014,07,12,08,10,19.70
2014,07,12,08,11,19.70
2014,07,12,08,12,19.70
2014,07,12,08,13,19.70
2014,07,12,08,14,19.70
2014,07,12,08,15,19.70
2014,07,12,08,16,19.60
2014,07,12,08,17,19.60
2014,07,12,08,18,19.60
2014,07,12,08,19,19.60
2014,07,12,08,20,19.60
2014,07,12,08,21,19.60
2014,07,12,08,22,19.60
2014,07,12,08,23,19.60
2014,07,12,08,24,19.60
2014,07,12,08,25,19.60
2014,07,12,08,26,19.70
2014,07,12,08,27,19.70
2014,07,12,08,28,19.70
2014,07,12,08,29,19.70
2014,07,12,08,30,19.70
2014,07,12,08,31,19.70
2014,07,12,08,32,19.70
2014,07,12,08,33,19.60
2014,07,12,08,34,19.60
2014,07,12,08,35,19.60
2014,07,12,08,36,19.60
2014,07,12,08,37,19.50
2014,07,12,08,38,19.50
2014,07,12,08,39,19.50
2014,07,12,08,40,19.50
2014,07,12,08,41,19.50
2014,07,12,08,42,19.50
2014,07,12,08,43,19.60
2014,07,12,08,44,19.70
2014,07,12,08,45,19.70
2014,07,12,08,46,19.80
2014,07,12,08,47,19.80
2014,07,12,08,48,19.90
2014,07,12,08,49,19.90
2014,07,12,08,50,19.90
2014,07,12,08,51,20.10
2014,07,12,08,52,20.20
2014,07,12,08,53,20.20
2014,07,12,08,54,20.20
2014,07,12,08,55,20.20
2014,07,12,08,56,20.30
2014,07,12,08,57,20.30
2014,07,12,08,58,20.40
2014,07,12,08,59,20.50
2014,07,12,09,00,20.60
2014,07,12,09,01,20.60
2014,07,12,09,02,20.70
2014,07,12,09,03,20.70
2014,07,12,09,04,20.80
2014,07,12,09,05,20.90
2014,07,12,09,06,21.00
2014,07,12,09,07,21.00
2014,07,12,09,08,21.10
2014,07,12,09,09,21.20
2014,07,12,09,10,21.20
2014,07,12,09,11,21.30
2014,07,12,09,12,21.30
2014,07,12,09,13,21.30
2014,07,12,09,14,21.30
2014,07,12,09,15,21.30
2014,07,12,09,16,21.40
2014,07,12,09,17,21.40
2014,07,12,09,18,21.60
2014,07,12,09,19,21.60
2014,07,12,09,20,21.60
2014,07,12,09,21,21.60
2014,07,12,09,22,21.70
2014,07,12,09,23,21.70
2014,07,12,09,24,21.70
2014,07,12,09,25,21.80
2014,07,12,09,26,21.80
2014,07,12,09,27,21.90
2014,07,12,09,28,21.90
2014,07,12,09,29,21.90
2014,07,12,09,30,22.00
2014,07,12,09,31,22.10
2014,07,12,09,32,22.10
2014,07,12,09,33,22.20
2014,07,12,09,34,22.30
2014,07,12,09,35,22.30
2014,07,12,09,36,22.40
2014,07,12,09,37,22.50
2014,07,12,09,38,22.50
2014,07,12,09,39,22.60
2014,07,12,09,40,22.70
2014,07,12,09,41,22.70
2014,07,12,09,42,22.80
2014,07,12,09,43,22.90
2014,07,12,09,44,22.90
2014,07,12,09,45,22.90
2014,07,12,09,46,22.90
2014,07,12,09,47,22.90
2014,07,12,09,48,22.90
2014,07,12,09,49,22.90
2014,07,12,09,50,22.90
2014,07,12,09,51,22.90
2014,07,12,09,52,22.90
2014,07,12,09,53,22.90
2014,07,12,09,54,22.80
2014,07,12,09,55,22.70
2014,07,12,09,56,22.60
2014,07,12,09,57,22.50
2014,07,12,09,58,22.40
2014,07,12,09,59,22.30
2014,07,12,10,00,22.30
2014,07,12,10,01,22.30
2014,07,12,10,02,22.30
2014,07,12,10,03,22.40
2014,07,12,10,04,22.40
2014,07,12,10,05,22.40
2014,07,12,10,06,22.40
2014,07,12,10,07,22.40
2014,07,12,10,08,22.50
2014,07,12,10,09,22.50
2014,07,12,10,10,22.60
2014,07,12,10,11,22.70
2014,07,12,10,12,22.70
2014,07,12,10,13,22.80
2014,07,12,10,14,22.80
2014,07,12,10,15,22.80
2014,07,12,10,16,22.90
2014,07,12,10,17,22.80
2014,07,12,10,18,22.90
2014,07,12,10,19,22.90
2014,07,12,10,20,22.90
2014,07,12,10,21,22.90
2014,07,12,10,22,22.90
2014,07,12,10,23,22.90
2014,07,12,10,24,22.90
2014,07,12,10,25,22.90
2014,07,12,10,26,22.90
2014,07,12,10,27,22.90
2014,07,12,10,28,22.90
2014,07,12,10,29,22.80
2014,07,12,10,30,22.90
2014,07,12,10,31,22.80
2014,07,12,10,32,22.70
2014,07,12,10,33,22.60
2014,07,12,10,34,22.60
2014,07,12,10,35,22.60
2014,07,12,10,36,22.60
2014,07,12,10,37,22.70
2014,07,12,10,38,22.70
2014,07,12,10,39,22.80
2014,07,12,10,40,22.80
2014,07,12,10,41,22.80
2014,07,12,10,42,22.80
2014,07,12,10,43,22.70
2014,07,12,10,44,22.70
2014,07,12,10,45,22.60
2014,07,12,10,46,22.50
2014,07,12,10,47,22.50
2014,07,12,10,48,22.40
2014,07,12,10,49,22.40
2014,07,12,10,50,22.40
2014,07,12,10,51,22.40
2014,07,12,10,52,22.40
2014,07,12,10,53,22.50
2014,07,12,10,54,22.50
2014,07,12,10,55,22.50
2014,07,12,10,56,22.60
2014,07,12,10,57,22.60
2014,07,12,10,58,22.60
2014,07,12,10,59,22.60
2014,07,12,11,00,22.60
2014,07,12,11,01,22.70
2014,07,12,11,02,22.70
2014,07,12,11,03,22.80
2014,07,12,11,04,22.80
2014,07,12,11,05,22.90
2014,07,12,11,06,22.90
2014,07,12,11,07,22.90
2014,07,12,11,08,22.90
2014,07,12,11,09,22.90
2014,07,12,11,10,22.90
2014,07,12,11,11,22.90
2014,07,12,11,12,22.90
2014,07,12,11,13,22.90
2014,07,12,11,14,23.10
2014,07,12,11,15,23.10
2014,07,12,11,16,23.20
2014,07,12,11,17,23.30
2014,07,12,11,18,23.30
2014,07,12,11,19,23.30
2014,07,12,11,20,23.30
2014,07,12,11,21,23.30
2014,07,12,11,22,23.40
2014,07,12,11,23,23.40
2014,07,12,11,24,23.40
2014,07,12,11,25,23.60
2014,07,12,11,26,23.60
2014,07,12,11,27,23.60
2014,07,12,11,28,23.40
2014,07,12,11,29,23.40
2014,07,12,11,30,23.60
2014,07,12,11,31,23.70
2014,07,12,11,32,23.70
2014,07,12,11,33,23.80
2014,07,12,11,34,23.90
2014,07,12,11,35,24.10
2014,07,12,11,36,23.90
2014,07,12,11,37,23.90
2014,07,12,11,38,23.90
2014,07,12,11,39,23.90
2014,07,12,11,40,23.80
2014,07,12,11,41,23.80
2014,07,12,11,42,23.70
2014,07,12,11,43,23.70
2014,07,12,11,44,23.70
2014,07,12,11,45,23.60
2014,07,12,11,46,23.60
2014,07,12,11,47,23.60
2014,07,12,11,48,23.60
2014,07,12,11,49,23.70
2014,07,12,11,51,23.70
2014,07,12,11,52,23.70
2014,07,12,11,53,23.80
2014,07,12,11,54,23.90
2014,07,12,11,55,23.90
2014,07,12,11,56,24.10
2014,07,12,11,57,24.10
2014,07,12,11,58,23.90
2014,07,12,11,59,23.90
2014,07,12,12,00,23.90
2014,07,12,12,01,23.90
2014,07,12,12,02,23.90
2014,07,12,12,03,23.90
2014,07,12,12,04,23.90
2014,07,12,12,05,23.90
2014,07,12,12,06,23.90
2014,07,12,12,07,23.90
2014,07,12,12,08,23.90
2014,07,12,12,09,23.90
2014,07,12,12,10,24.10
2014,07,12,12,11,24.10
2014,07,12,12,12,24.10
2014,07,12,12,13,24.10
2014,07,12,12,14,24.10
2014,07,12,12,15,24.10
2014,07,12,12,16,24.10
2014,07,12,12,17,24.10
2014,07,12,12,18,24.10
2014,07,12,12,19,24.10
2014,07,12,12,20,24.10
2014,07,12,12,21,24.10
2014,07,12,12,22,24.10
2014,07,12,12,23,24.10
2014,07,12,12,24,24.10
2014,07,12,12,25,24.10
2014,07,12,12,26,24.20
2014,07,12,12,27,24.20
2014,07,12,12,28,24.30
2014,07,12,12,29,24.30
2014,07,12,12,30,24.40
2014,07,12,12,31,24.50
2014,07,12,12,32,24.50
2014,07,12,12,33,24.60
2014,07,12,12,34,24.70
2014,07,12,12,35,24.70
2014,07,12,12,36,24.80
2014,07,12,12,37,24.80
2014,07,12,12,38,24.80
2014,07,12,12,39,24.80
2014,07,12,12,40,24.90
2014,07,12,12,41,24.90
2014,07,12,12,42,24.90
2014,07,12,12,43,24.90
2014,07,12,12,44,24.90
2014,07,12,12,45,25.00
2014,07,12,12,46,25.10
2014,07,12,12,47,25.20
2014,07,12,12,48,25.20
2014,07,12,12,49,25.40
2014,07,12,12,50,25.40
2014,07,12,12,51,25.50
2014,07,12,12,52,25.50
2014,07,12,12,53,25.60
2014,07,12,12,54,25.70
2014,07,12,12,55,25.70
2014,07,12,12,56,25.80
2014,07,12,12,57,25.90
2014,07,12,12,58,25.90
2014,07,12,12,59,26.00
2014,07,12,13,00,26.10
2014,07,12,13,01,26.20
2014,07,12,13,02,26.20
2014,07,12,13,03,26.10
2014,07,12,13,04,26.00
2014,07,12,13,05,25.90
2014,07,12,13,06,25.90
2014,07,12,13,07,25.80
2014,07,12,13,08,25.70
2014,07,12,13,09,25.70
2014,07,12,13,11,25.60
2014,07,12,13,12,25.60
2014,07,12,13,13,25.60
2014,07,12,13,14,25.60
2014,07,12,13,15,25.70
2014,07,12,13,16,25.70
2014,07,12,13,17,25.80
2014,07,12,13,18,25.90
2014,07,12,13,19,26.00
2014,07,12,13,20,26.10
2014,07,12,13,21,26.20
2014,07,12,13,22,26.30
2014,07,12,13,23,26.30
2014,07,12,13,24,26.30
2014,07,12,13,25,26.30
2014,07,12,13,26,26.40
2014,07,12,13,27,26.40
2014,07,12,13,28,26.40
2014,07,12,13,29,26.40
2014,07,12,13,30,26.40
2014,07,12,13,31,26.60
2014,07,12,13,32,26.60
2014,07,12,13,33,26.70
2014,07,12,13,34,26.80
2014,07,12,13,35,26.90
2014,07,12,13,36,27.10
2014,07,12,13,37,27.10
2014,07,12,13,38,27.10
2014,07,12,13,39,27.20
2014,07,12,13,40,27.30
2014,07,12,13,41,27.30
2014,07,12,13,42,27.40
2014,07,12,13,43,27.70
2014,07,12,13,44,27.80
2014,07,12,13,45,27.80
2014,07,12,13,46,28.00
2014,07,12,13,47,28.10
2014,07,12,13,48,28.20
2014,07,12,13,49,28.30
2014,07,12,13,50,28.30
2014,07,12,13,51,28.40
2014,07,12,13,52,28.70
2014,07,12,13,53,28.70
2014,07,12,13,54,28.80
2014,07,12,13,55,28.80
2014,07,12,13,56,28.70
2014,07,12,13,57,28.70
2014,07,12,13,58,28.70
2014,07,12,13,59,28.90
2014,07,12,14,00,28.90
2014,07,12,14,01,28.90
2014,07,12,14,02,28.90
2014,07,12,14,03,29.10
2014,07,12,14,04,28.90
2014,07,12,14,05,28.90
2014,07,12,14,06,28.90
2014,07,12,14,07,28.90
2014,07,12,14,08,28.90
2014,07,12,14,09,28.90
2014,07,12,14,10,28.90
2014,07,12,14,11,28.90
2014,07,12,14,12,28.90
2014,07,12,14,13,28.90
2014,07,12,14,14,28.90
2014,07,12,14,15,28.80
2014,07,12,14,16,28.80
2014,07,12,14,17,28.80
2014,07,12,14,18,28.80
2014,07,12,14,19,28.80
2014,07,12,14,20,28.80
2014,07,12,14,21,28.80
2014,07,12,14,22,28.80
2014,07,12,14,23,28.90
2014,07,12,14,24,28.90
2014,07,12,14,25,28.80
2014,07,12,14,26,28.80
2014,07,12,14,27,28.80
2014,07,12,14,28,28.70
2014,07,12,14,29,28.60
2014,07,12,14,30,28.70
2014,07,12,14,31,28.60
2014,07,12,14,32,28.60
2014,07,12,14,33,28.60
2014,07,12,14,34,28.60
2014,07,12,14,35,28.60
2014,07,12,14,36,28.70
2014,07,12,14,37,28.80
2014,07,12,14,38,28.80
2014,07,12,14,39,28.80
2014,07,12,14,40,28.80
2014,07,12,14,41,28.80
2014,07,12,14,42,28.90
2014,07,12,14,43,28.90
2014,07,12,14,44,29.10
2014,07,12,14,45,29.10
2014,07,12,14,46,29.20
2014,07,12,14,47,29.20
2014,07,12,14,48,29.20
2014,07,12,14,49,29.30
2014,07,12,14,50,29.30
2014,07,12,14,51,29.30
2014,07,12,14,52,29.30
2014,07,12,14,53,29.40
2014,07,12,14,54,29.40
2014,07,12,14,55,29.50
2014,07,12,14,56,29.50
2014,07,12,14,57,29.60
2014,07,12,14,58,29.60
2014,07,12,14,59,29.60
2014,07,12,15,00,29.60
2014,07,12,15,01,29.60
2014,07,12,15,02,29.60
2014,07,12,15,03,29.60
2014,07,12,15,04,29.70
2014,07,12,15,05,29.70
2014,07,12,15,06,29.70
2014,07,12,15,07,29.70
2014,07,12,15,08,29.70
2014,07,12,15,09,29.70
2014,07,12,15,10,29.70
2014,07,12,15,11,29.60
2014,07,12,15,12,29.70
2014,07,12,15,13,29.70
2014,07,12,15,14,29.70
2014,07,12,15,15,29.80
2014,07,12,15,16,29.90
2014,07,12,15,17,30.10
2014,07,12,15,18,30.10
2014,07,12,15,19,29.90
2014,07,12,15,20,29.80
2014,07,12,15,21,29.80
2014,07,12,15,22,29.80
2014,07,12,15,23,29.80
2014,07,12,15,24,29.70
2014,07,12,15,25,29.70
2014,07,12,15,26,29.70
2014,07,12,15,27,29.70
2014,07,12,15,28,29.70
2014,07,12,15,29,29.70
2014,07,12,15,30,29.80
2014,07,12,15,31,29.80
2014,07,12,15,33,29.60
2014,07,12,15,34,29.50
2014,07,12,15,35,29.40
2014,07,12,15,36,29.20
2014,07,12,15,37,29.10
2014,07,12,15,38,28.90
2014,07,12,15,39,29.10
2014,07,12,15,40,29.10
2014,07,12,15,41,29.10
2014,07,12,15,42,29.10
2014,07,12,15,43,29.10
2014,07,12,15,44,29.20
2014,07,12,15,45,29.20
2014,07,12,15,46,29.20
2014,07,12,15,47,29.20
2014,07,12,15,48,29.20
2014,07,12,15,49,29.30
2014,07,12,15,50,29.30
2014,07,12,15,51,29.30
2014,07,12,15,52,29.30
2014,07,12,15,53,29.40
2014,07,12,15,54,29.30
2014,07,12,15,55,29.30
2014,07,12,15,56,29.30
2014,07,12,15,57,29.30
2014,07,12,15,58,29.30
2014,07,12,15,59,29.30
2014,07,12,16,00,29.30
2014,07,12,16,01,29.30
2014,07,12,16,02,29.40
2014,07,12,16,03,29.40
2014,07,12,16,04,29.50
2014,07,12,16,05,29.50
2014,07,12,16,06,29.60
2014,07,12,16,07,29.60
2014,07,12,16,08,29.70
2014,07,12,16,09,29.80
2014,07,12,16,10,29.80
2014,07,12,16,11,29.80
2014,07,12,16,12,29.80
2014,07,12,16,13,29.80
2014,07,12,16,14,29.90
2014,07,12,16,15,29.90
2014,07,12,16,16,29.90
2014,07,12,16,17,30.10
2014,07,12,16,18,30.20
2014,07,12,16,19,30.30
2014,07,12,16,20,30.30
2014,07,12,16,21,30.40
2014,07,12,16,22,30.40
2014,07,12,16,23,30.60
2014,07,12,16,24,30.60
2014,07,12,16,25,30.60
2014,07,12,16,26,30.40
2014,07,12,16,27,30.40
2014,07,12,16,28,30.40
2014,07,12,16,29,30.40
2014,07,12,16,30,30.40
2014,07,12,16,31,30.30
2014,07,12,16,32,30.30
2014,07,12,16,33,30.30
2014,07,12,16,34,30.20
2014,07,12,16,35,30.30
2014,07,12,16,36,30.20
2014,07,12,16,37,30.20
2014,07,12,16,38,30.30
2014,07,12,16,39,30.30
2014,07,12,16,40,30.30
2014,07,12,16,41,30.30
2014,07,12,16,42,30.30
2014,07,12,16,43,30.30
2014,07,12,16,44,30.30
2014,07,12,16,45,30.40
2014,07,12,16,46,30.60
2014,07,12,16,47,30.70
2014,07,12,16,48,30.70
2014,07,12,16,49,30.80
2014,07,12,16,50,30.70
2014,07,12,16,51,30.60
2014,07,12,16,52,30.40
2014,07,12,16,53,30.60
2014,07,12,16,54,30.40
2014,07,12,16,55,30.40
2014,07,12,16,56,30.30
2014,07,12,16,57,30.40
2014,07,12,16,58,30.40
2014,07,12,16,59,30.40
2014,07,12,17,00,30.40
2014,07,12,17,01,30.40
2014,07,12,17,02,30.40
2014,07,12,17,03,30.60
2014,07,12,17,04,30.70
2014,07,12,17,05,30.80
2014,07,12,17,06,30.80
2014,07,12,17,07,30.80
2014,07,12,17,08,30.80
2014,07,12,17,09,30.80
2014,07,12,17,10,30.80
2014,07,12,17,11,30.80
2014,07,12,17,12,30.80
2014,07,12,17,13,30.70
2014,07,12,17,14,30.40
2014,07,12,17,15,30.30
2014,07,12,17,16,30.30
2014,07,12,17,17,30.30
2014,07,12,17,18,30.30
2014,07,12,17,19,30.30
2014,07,12,17,20,30.30
2014,07,12,17,21,30.30
2014,07,12,17,22,30.40
2014,07,12,17,23,30.40
2014,07,12,17,24,30.40
2014,07,12,17,25,30.30
2014,07,12,17,26,30.30
2014,07,12,17,27,30.30
2014,07,12,17,28,30.20
2014,07,12,17,29,30.30
2014,07,12,17,30,30.20
2014,07,12,17,31,30.10
2014,07,12,17,32,29.90
2014,07,12,17,33,29.60
2014,07,12,17,34,29.50
2014,07,12,17,35,29.40
2014,07,12,17,36,29.30
2014,07,12,17,37,29.20
2014,07,12,17,38,29.10
2014,07,12,17,39,28.90
2014,07,12,17,40,28.90
2014,07,12,17,41,28.70
2014,07,12,17,42,28.60
2014,07,12,17,43,28.60
2014,07,12,17,44,28.40
2014,07,12,17,45,28.40
2014,07,12,17,46,28.40
2014,07,12,17,47,28.40
2014,07,12,17,48,28.30
2014,07,12,17,49,28.30
2014,07,12,17,50,28.20
2014,07,12,17,51,28.20
2014,07,12,17,52,28.10
2014,07,12,17,53,28.10
2014,07,12,17,54,28.00
2014,07,12,17,55,28.00
2014,07,12,17,56,27.90
2014,07,12,17,57,27.90
2014,07,12,17,58,27.90
2014,07,12,17,59,27.80
2014,07,12,18,00,27.80
2014,07,12,18,01,27.80
2014,07,12,18,02,27.70
2014,07,12,18,03,27.60
2014,07,12,18,04,27.40
2014,07,12,18,05,27.30
2014,07,12,18,06,27.30
2014,07,12,18,07,27.30
2014,07,12,18,08,27.30
2014,07,12,18,09,27.10
2014,07,12,18,10,27.10
2014,07,12,18,11,26.90
2014,07,12,18,12,26.80
2014,07,12,18,13,26.80
2014,07,12,18,14,26.70
2014,07,12,18,15,26.60
2014,07,12,18,16,26.60
2014,07,12,18,17,26.60
2014,07,12,18,18,26.60
2014,07,12,18,19,26.40
2014,07,12,18,20,26.60
2014,07,12,18,21,26.60
2014,07,12,18,22,26.60
2014,07,12,18,23,26.60
2014,07,12,18,24,26.60
2014,07,12,18,25,26.60
2014,07,12,18,26,26.60
2014,07,12,18,27,26.60
2014,07,12,18,28,26.60
2014,07,12,18,29,26.60
2014,07,12,18,30,26.40
2014,07,12,18,31,26.60
2014,07,12,18,32,26.60
2014,07,12,18,33,26.40
2014,07,12,18,34,26.40
2014,07,12,18,35,26.40
2014,07,12,18,36,26.60
2014,07,12,18,37,26.60
2014,07,12,18,38,26.60
2014,07,12,18,39,26.60
2014,07,12,18,40,26.60
2014,07,12,18,41,26.60
2014,07,12,18,42,26.60
2014,07,12,18,43,26.60
2014,07,12,18,44,26.60
2014,07,12,18,45,26.40
2014,07,12,18,46,26.40
2014,07,12,18,47,26.30
2014,07,12,18,48,26.30
2014,07,12,18,49,26.20
2014,07,12,18,50,26.20
2014,07,12,18,51,26.20
2014,07,12,18,52,26.20
2014,07,12,18,53,26.10
2014,07,12,18,54,26.00
2014,07,12,18,55,26.00
2014,07,12,18,56,26.00
2014,07,12,18,57,26.00
2014,07,12,18,58,25.90
2014,07,12,18,59,25.80
2014,07,12,19,00,25.60
2014,07,12,19,01,25.60
2014,07,12,19,02,25.60
2014,07,12,19,03,25.60
2014,07,12,19,04,25.70
2014,07,12,19,05,25.70
2014,07,12,19,06,25.60
2014,07,12,19,07,25.60
2014,07,12,19,08,25.60
2014,07,12,19,09,25.60
2014,07,12,19,10,25.60
2014,07,12,19,11,25.60
2014,07,12,19,12,25.60
2014,07,12,19,13,25.60
2014,07,12,19,14,25.60
2014,07,12,19,15,25.60
2014,07,12,19,16,25.50
2014,07,12,19,17,25.50
2014,07,12,19,18,25.40
2014,07,12,19,19,25.40
2014,07,12,19,20,25.30
2014,07,12,19,21,25.30
2014,07,12,19,22,25.30
2014,07,12,19,23,25.30
2014,07,12,19,24,25.20
2014,07,12,19,25,25.20
2014,07,12,19,26,25.20
2014,07,12,19,27,25.20
2014,07,12,19,28,25.20
2014,07,12,19,29,25.20
2014,07,12,19,30,25.20
2014,07,12,19,31,25.20
2014,07,12,19,32,25.20
2014,07,12,19,33,25.10
2014,07,12,19,34,25.10
2014,07,12,19,35,25.10
2014,07,12,19,36,25.10
2014,07,12,19,37,25.10
2014,07,12,19,38,25.00
2014,07,12,19,39,24.90
2014,07,12,19,40,24.90
2014,07,12,19,41,24.90
2014,07,12,19,42,24.90
2014,07,12,19,43,24.90
2014,07,12,19,44,24.80
2014,07,12,19,45,24.80
2014,07,12,19,46,24.70
2014,07,12,19,47,24.70
2014,07,12,19,48,24.60
2014,07,12,19,49,24.50
2014,07,12,19,50,24.50
2014,07,12,19,51,24.40
2014,07,12,19,52,24.40
2014,07,12,19,53,24.30
2014,07,12,19,54,24.30
2014,07,12,19,55,24.20
2014,07,12,19,56,24.10
2014,07,12,19,57,24.10
2014,07,12,19,58,23.90
2014,07,12,19,59,23.90
2014,07,12,20,00,23.90
2014,07,12,20,01,23.80
2014,07,12,20,02,23.80
2014,07,12,20,03,23.80
2014,07,12,20,04,23.70
2014,07,12,20,05,23.70
2014,07,12,20,06,23.70
2014,07,12,20,07,23.60
2014,07,12,20,08,23.60
2014,07,12,20,09,23.40
2014,07,12,20,10,23.40
2014,07,12,20,11,23.30
2014,07,12,20,12,23.30
2014,07,12,20,13,23.30
2014,07,12,20,14,23.30
2014,07,12,20,15,23.30
2014,07,12,20,16,23.30
2014,07,12,20,17,23.30
2014,07,12,20,18,23.30
2014,07,12,20,19,23.30
2014,07,12,20,21,23.30
2014,07,12,20,22,23.30
